Regional Weather Roundup
Issued by NWS Upton, NY

Current Version | Previous Version | Graphics & Text | Print | Product List | Glossary Off
Versions: 1 2 3 4 5 6 7 8 9 10 11 12 13 14 15 16 17 18 19 20 21 22 23 24 25 26 27 28 29 30 31 32 33 34 35 36 37 38 39 40 41 42 43 44 45 46 47 48 49 50

577
ASUS41 KOKX 220105
RWROKX

Regional Weather Roundup
National Weather Service New York NY
800 PM EST WED FEB 21 2018

Note: "FAIR" indicates few or no clouds below 12,000 feet with no
significant weather and/or obstructions to visibility.

NYZ071-072-176-178-NJZ106-104-220200-
New York City Metro Area

CITY           SKY/WX    TMP DP  RH WIND       PRES   REMARKS
Central Park   CLOUDY    69  54  58 VRB7G18   30.33R
Bronx Bot Gard   N/A     68  55  64 W3        30.30R
Bronx Lehman C   N/A     66  57  72 NW9         N/A
LaGuardia Arpt LGT RAIN  66  53  63 NW15      30.29R
Queens College   N/A     64  55  72 NW6         N/A
Kennedy Intl   FAIR      53  50  89 CALM      30.29R
Breezy Point     N/A     48 N/A N/A CALM        N/A
Brooklyn Coll    N/A     64  52  63 N5          N/A
Staten Island    N/A     72  59  64 NW9         N/A
Newark/Liberty LGT RAIN  67  55  65 NW21G31   30.30R
Teterboro      RAIN      65  57  75 NW10G20   30.30R
$$

NYZ177-179-078>081-220200-
Long Island New York

CITY           SKY/WX    TMP DP  RH WIND       PRES   REMARKS
Jones Beach      N/A     46 N/A N/A SW7         N/A
Wantagh          N/A     50  48  93 S6          N/A
Hempstead        N/A     57  54  88 S3        30.31R
Matinecock Pt    N/A     55 N/A N/A W12         N/A
Farmingdale    FAIR      54  50  86 S5        30.28R
MacArthur/ISP  FAIR      53  51  93 SW9       30.28R
Shirley        FAIR      53  51  93 SW7       30.29R
Mt Sinai Harb    N/A    N/A N/A N/A S6          N/A
Westhampton    FAIR      52  51  97 SW7       30.30R
East Hampton   FAIR      54  52  94 SW9G16    30.28R
Southold         N/A     61  55  82 SW9         N/A
Montauk          N/A     57  54  89 SW9G17    30.27R
$$

NYZ052-065-067-220200-
Hudson Valley

CITY           SKY/WX    TMP DP  RH WIND       PRES   REMARKS
White Plains   MOCLDY    66  53  63 NW15      30.29R
Larchmont Harb   N/A     68 N/A N/A NW15        N/A
Croton On Huds   N/A     64 N/A N/A NW13        N/A
Somers           N/A     63  52  67 N6          N/A
Brewster         N/A     57  46  67 N8          N/A
Newburgh       MOCLDY    63  52  67 NW7       30.33R
Montgomery     CLOUDY    58  46  64 W14       30.33R
Otisville        N/A     54  45  71 NW8         N/A
Warwick          N/A     59  50  72 NW7         N/A
Suffern          N/A     64  50  59 SE1         N/A
Poughkeepsie   CLOUDY    58  46  64 N12       30.34R
Albany         CLOUDY    43  34  70 W18G30    30.44R
$$

NJZ001-105-106-008-010-013-015-019>022-104-220200-
New Jersey

CITY           SKY/WX    TMP DP  RH WIND       PRES   REMARKS
Newark/Liberty LGT RAIN  67  55  65 NW21G31   30.30R
Teterboro      RAIN      65  57  75 NW10G20   30.30R
Caldwell       RAIN      60  58  92 CALM      30.33R FOG
Somerville     CLOUDY    63  57  81 N10       30.30R
Linden         CLOUDY    70  56  61 N18       30.30R
Perth Amboy      N/A     72 N/A N/A SW9         N/A
Sussex         CLOUDY    58  48  69 VRB6      30.38R
Andover          N/A     56  47  71 NE7       30.38R
Trenton        LGT RAIN  71  62  73 SW7       30.28
Millville      FAIR      67  59  75 VRB5      30.31S
Atlantic City  FAIR      60  54  80 S5        30.32R
Wrightstown    FAIR      68  60  77 SW8       30.27R
Toms River     FAIR      68  61  78 SW10      30.31R
Belmar         FAIR      70  61  73 SW10      30.30
$$

PAZ047>061-062-071-220200-
Eastern Pennsylvania

CITY           SKY/WX    TMP DP  RH WIND       PRES   REMARKS
Philadelphia   FAIR      68  59  73 VRB6      30.30R
Allentown      LGT RAIN  61  52  72 N8        30.36R
Scranton       CLOUDY    46  42  86 N13       30.45R
$$

CTZ002-004>006-009-010-012-RIZ004-006-007-MAZ004-011-015-220200-
Southern New England

 In CT

CITY           SKY/WX    TMP DP  RH WIND       PRES   REMARKS
Bradley Intl   MOCLDY    59  47  64 NW8G18    30.31R
Hartford       CLOUDY    62  47  57 NW10G18   30.32R
Danbury        CLOUDY    61  49  64 N13       30.33R
Wtrbury/Oxford FAIR      58  48  69 N15G23    30.32R
Norwalk Harbor   N/A     66 N/A N/A NW14G23     N/A
Bridgeport     CLOUDY    65  56  72 NW8G17    30.28R
Meriden        MOCLDY    61  48  62 N9        30.31R
New Haven      MOCLDY    64  54  69 N12       30.28R
Chester        FAIR      63  54  72 NW10G18   30.30R
Groton         MOCLDY    54  52  93 NW6       30.29R
Willimantic    MOCLDY    65  50  58 NW14G24   30.29R

 In RI

CITY           SKY/WX    TMP DP  RH WIND       PRES   REMARKS
Providence     FAIR      60  57  89 W6        30.26R
Block Island   CLOUDY    47  47 100 SW16      30.28R FOG
Westerly       FAIR      53  53 100 CALM      30.29R

In MA

CITY           SKY/WX    TMP DP  RH WIND       PRES   REMARKS
Boston         CLOUDY    68  56  65 W14       30.23R
Worcester      CLOUDY    63  52  67 W18       30.28R
Westfield      CLOUDY    59  47  64 NW8       30.32R
Provincetown   FOG       42  42 100 SW15      30.24R VSB 1
Nantucket      FOG       45  45 100 SW16      30.27R VSB 1/4
$$

ANZ330-335-338-340-345-350-353-355-220200-
Coastal Marine Observations


STATION/POSITION TIME  SKY/WX   TEMP    WIND        PRES    VSBY  WAVE
                                AIR SEA DIR/SP/G                  HT/PER
                 (UTC)          (F)     (DEG/KT/KT) (MB)    (MI)  (FT/S)
NY Harb Entrance 0050            46     200/ 12/ 16 1025.5          4/ 6
20 S Fire Island 0050            48 43  220/ 14/ 16 1025.7          5/ 6
15 E Barnegat Li 0030               42                N/A           4/13
Hudson Canyon    0050            50 47  210/ 16/ 17 1026.8          5/ 6
Kings Point      0024            64 39  200/  9/ 10 1025.3
Execution Rocks  NOT AVBL
Western LI Sound NOT AVBL
Central LI Sound 0000            46     210/ 12/ 14   N/A           1
Robbins Reef     0024            72     260/  5/  7 1025.1
$$


>>>>>>>>>>>>>>>>>>>>>>>>>>>> KEY <<<<<<<<<<<<<<<<<<<<<<<<<<<
>                                                          <
>     SKY/WX - Sky Condition/Present Weather               <
>     TMP    - Temperature in Fahrenheit                   <
>     DP     - Dew Point in Fahrenheit                     <
>     RH     - Relative Humidity in Percent                <
>     WIND   - Direction (from) and Speed in MPH           <
>     PRES   - Mean Sea Level Pressure (inches of Hg)      <
>     WCI    - Wind Chill Index                            <
>     VSB    - Visibility in Miles                         <
>     HX     - Heat Index                                  <
>     TC     - Temperature in Celsius                      <
>     VRB    - Varibale Wind Direction                     <
>                                                          <
>>>>>>>>>>>>>>>>>>>>>>>>>>>> KEY <<<<<<<<<<<<<<<<<<<<<<<<<<<




USA.gov is the U.S. government's official web portal to all federal, state and local government web resources and services.